{"data":{"norad_id":47778,"intl_designator":"2021-017BJ","name":"STARLINK-2211","alt_names":[],"object_type":"PAYLOAD","status":"ACTIVE","operator":null,"country":"US","launch_date":"2021-03-04","launch_site_code":"AFETR","launch_vehicle":null,"mission":null,"orbit_class":"UNKNOWN","rcs_meters":null,"size_class":null,"mass_kg":null,"dimensions":null,"purposes":["comms"],"wikipedia_slug":null,"has_3d_model":false,"image_url":null,"decayed_at":null,"tle_current":{"epoch":"2026-05-24T21:24:15.437376Z","epoch_age_seconds":78252,"freshness":"FRESH","line1":"1 47778U 21017BJ  26144.89184534  .00053706  00000+0  10478-2 0  9995","line2":"2 47778  53.1584 203.8474 0005978 339.0545  21.0217 15.46989309289610","mean_motion":15.46989309,"eccentricity":0.0005978,"inclination_deg":53.1584,"raan_deg":203.8474,"arg_perigee_deg":339.0545,"mean_anomaly_deg":21.0217,"bstar":0.0010478,"rev_number":28961,"period_min":93.084030485695,"perigee_km":421.47190838459,"apogee_km":429.60638358473,"semimajor_km":6803.6761459847,"source":"CELESTRAK","updated_at":"2026-05-25T13:38:16.596065Z"}}}